#datint,netname,site,siteID,timestamp,IntT_Avg,BattV_Min,AirT2_Avg,AirT_Avg,AirT_Max,AirT_Min,SolarW_Avg,SolarMJ,WindS_Max,WindS_Avg,WindD_Avg,WindD_SD,EA_Avg,RH_Max,RH_Min,Td_Avg,Td_Max,Td_Min,ETo,ETr,SoilT4_Avg,SoilT8_Avg,SoilVWC8_Avg,wetstate_Avg,wetT_Avg,precip_accum,Precip_WPG,Precip_TB,Rso
hly,AgWx,beryljct,423,11MAR2019:00:00:00,36.4,12.85,33.7,33.4,34.2,32.3,0,0.0001,5.0,2.4,320,16,0.599,94,91,31.6,32.3,30.8,-0.00039,-0.00051,.,39.9,26,34,35.6,12.43,0.01,0.00,1E-6
hly,AgWx,beryljct,423,11MAR2019:01:00:00,35.2,12.69,32.4,31.9,32.3,31.7,0,0.0002,5.4,3.3,336,5.8,0.581,96,94,30.8,31.0,30.6,-0.00033,-0.00039,.,39.9,26,100,35.7,12.44,0.01,0.01,1E-6
hly,AgWx,beryljct,423,11MAR2019:02:00:00,34.6,12.76,32.0,31.6,31.9,31.5,0,0.0001,7.1,3.4,325,4.5,0.578,97,96,30.7,30.9,30.5,-0.00033,-0.00039,.,39.8,26,98,35.5,12.46,0.02,0.00,1E-6
hly,AgWx,beryljct,423,11MAR2019:03:00:00,34.3,12.77,32.1,31.6,31.8,31.5,0,0.0002,8.3,3.9,332,6.2,0.582,97,97,30.8,30.9,30.6,-0.00031,-0.00037,.,39.7,26,57,35.7,12.46,0.00,0.00,1E-6
hly,AgWx,beryljct,423,11MAR2019:04:00:00,34.2,12.76,32.2,31.7,31.9,31.5,0,0.0001,4.2,2.6,254,8.7,0.584,97,97,30.9,31.1,30.7,-0.00039,-0.00048,.,39.6,26,0,35.8,12.46,0.00,0.00,1E-6
hly,AgWx,beryljct,423,11MAR2019:05:00:00,34.2,12.75,32.5,31.9,32.1,31.7,0,0.0001,9.2,4.1,47,11,0.592,97,97,31.2,31.3,31.0,-0.00031,-0.00036,.,39.5,26,0,35.6,12.47,0.00,0.00,0.0008773549
hly,AgWx,beryljct,423,11MAR2019:06:00:00,34.2,12.74,32.5,32.0,32.2,31.8,0,0.0004,10.6,7.2,64,7.9,0.587,97,96,31.1,31.4,30.8,0.00007,0.00015,.,39.4,26,0,35.7,12.47,0.00,0.00,0.15195489
hly,AgWx,beryljct,423,11MAR2019:07:00:00,34.2,12.75,32.6,32.1,32.4,32.0,25,0.0907,11.7,7.0,66,7.7,0.576,96,93,30.6,31.0,30.4,0.00057,0.00076,.,39.3,26,0,35.8,12.47,0.00,0.00,0.7971123
hly,AgWx,beryljct,423,11MAR2019:08:00:00,34.7,12.85,33.8,33.0,34.2,32.3,145,0.5237,10.2,7.2,53,7.8,0.587,93,89,31.0,31.9,30.6,0.00204,0.00237,.,39.2,26,0,38.7,12.49,0.01,0.04,1.5328099
hly,AgWx,beryljct,423,11MAR2019:09:00:00,36.2,13,35.0,34.4,35.2,33.7,131,0.4709,15.4,8.8,48,9.2,0.597,90,85,31.2,32.0,30.7,0.00223,0.00274,.,39.0,26,0,39.6,12.49,0.00,0.01,2.1594986
hly,AgWx,beryljct,423,11MAR2019:10:00:00,38.2,13.04,36.2,35.9,36.8,35.0,248,0.8918,15.4,10.9,52,9.2,0.599,87,81,31.4,32.6,30.7,0.00378,0.00462,.,39.0,26,0,43.4,12.48,0.00,0.00,2.6105244
hly,AgWx,beryljct,423,11MAR2019:11:00:00,40.8,13.87,38.8,37.8,41.2,36.2,447,1.6104,15.9,12.4,54,9.3,0.604,84,67,31.6,33.7,28.9,0.00641,0.00774,.,38.9,26,0,48.6,12.48,0.00,0.00,2.8470726
hly,AgWx,beryljct,423,11MAR2019:12:00:00,43.8,14.54,40.2,39.9,41.3,38.9,415,1.4956,16.1,11.9,41,14,0.595,76,68,31.7,33.0,29.9,0.00683,0.00848,.,38.9,26,0,51.0,12.48,0.00,0.00,2.8495617
hly,AgWx,beryljct,423,11MAR2019:13:00:00,46.0,14.04,42.1,41.7,43.3,40.5,597,2.1475,20.2,12.6,55,13,0.617,73,65,32.2,34.4,30.6,0.00918,0.01124,.,39.0,26,0,54.0,12.47,0.01,0.00,2.6162284
hly,AgWx,beryljct,423,11MAR2019:14:00:00,46.9,14.03,42.8,42.4,43.4,41.1,534,1.9208,19.0,12.3,67,11,0.605,71,63,32.1,34.4,30.8,0.00852,0.01066,.,39.1,26,0,52.7,12.47,0.00,0.00,2.170176
hly,AgWx,beryljct,423,11MAR2019:15:00:00,47.6,14.03,44.5,43.7,44.4,42.6,444,1.5996,18.7,13.0,61,9.6,0.617,67,59,32.2,34.3,30.2,0.00752,0.00988,.,39.3,26,0,51.4,12.46,0.00,0.00,1.5470437
hly,AgWx,beryljct,423,11MAR2019:16:00:00,47.4,14.04,44.4,44.0,44.4,43.6,299,1.0764,17.0,12.7,69,8.5,0.604,64,59,31.6,32.8,30.5,0.00568,0.00804,.,39.5,26,0,48.9,12.46,0.00,0.00,0.8142188
hly,AgWx,beryljct,423,11MAR2019:17:00:00,45.9,13.23,43.0,42.9,43.8,42.2,137,0.4920,16.9,12.1,53,7.9,0.585,66,60,31.0,32.7,30.1,0.00292,0.00457,.,39.7,26,0,46.1,12.46,0.00,0.00,0.162196427
hly,AgWx,beryljct,423,11MAR2019:18:00:00,43.3,13.06,41.5,41.4,42.2,40.5,25,0.0900,14.5,9.3,51,6.8,0.578,68,63,30.8,31.3,30.3,0.00071,0.00089,.,40.0,26,0,42.3,12.46,0.01,0.00,0.001215612
hly,AgWx,beryljct,423,11MAR2019:19:00:00,41.5,13,40.1,39.8,40.7,39.1,0,0.0004,11.3,6.5,49,6.3,0.567,71,66,30.1,30.5,29.7,0.00028,0.00041,.,40.1,26,0,40.2,12.46,0.01,0.00,1E-6
hly,AgWx,beryljct,423,11MAR2019:20:00:00,40.3,12.98,39.0,38.8,39.5,38.3,0,0.0002,8.2,5.3,69,7.1,0.590,76,69,31.0,31.5,30.0,0.00004,0.00011,.,40.2,26,0,39.3,12.46,0.01,0.00,1E-6
hly,AgWx,beryljct,423,11MAR2019:21:00:00,39.6,12.94,38.8,38.3,38.7,37.9,0,0.0001,6.7,3.8,83,9.9,0.604,80,74,31.6,32.4,31.2,-0.00020,-0.00019,.,40.3,26,0,38.9,12.46,0.00,0.00,1E-6
hly,AgWx,beryljct,423,11MAR2019:22:00:00,39.5,12.91,38.7,38.2,38.5,37.9,0,0.0001,6.4,2.4,65,14,0.628,81,79,32.6,32.9,32.2,-0.00050,-0.00065,.,40.3,26,0,39.0,12.47,0.00,0.00,1E-6
hly,AgWx,beryljct,423,11MAR2019:23:00:00,39.6,12.9,39.0,38.2,38.4,38.1,0,0.0000,4.7,2.5,85,7.2,0.635,82,80,32.9,33.1,32.8,-0.00012,-0.00014,.,40.2,26,0,39.2,12.47,0.00,0.00,2.5E-7
hly,AgWx,bigpiney,439,11MAR2019:00:00:00,10.1,12.69,6.2,6.4,7.4,5.5,0,0.0001,7.2,4.4,235,17,0.171,88,84,3.1,4.5,1.5,-0.00012,-0.00013,29.9,30.2,8,0,0.0,0.32,0.00,0.00,1E-6
hly,AgWx,bigpiney,439,11MAR2019:01:00:00,8.9,12.63,3.9,3.5,5.3,2.0,0,0.0001,3.1,1.0,188,18,0.154,87,83,0.2,1.9,-1.4,-0.00032,-0.00044,30.0,30.2,8,0,0.0,0.32,0.00,0.00,1E-6
hly,AgWx,bigpiney,439,11MAR2019:02:00:00,6.9,12.6,3.3,2.5,3.7,1.8,0,0.0001,3.8,1.5,270,16,0.149,87,86,-0.7,0.5,-1.4,-0.00025,-0.00032,30.0,30.2,8,0,0.0,0.32,0.00,0.00,1E-6
hly,AgWx,bigpiney,439,11MAR2019:03:00:00,6.2,12.56,3.1,2.8,4.6,0.6,0,0.0001,3.4,1.8,234,14,0.147,86,83,-0.7,1.3,-3.1,-0.00023,-0.00029,30.0,30.2,8,0,0.0,0.32,0.00,0.00,1E-6
hly,AgWx,bigpiney,439,11MAR2019:04:00:00,4.8,12.5,0.2,-0.0,2.0,-2.5,0,0.0001,3.5,1.3,300,40,0.127,87,83,-3.3,-1.1,-5.9,-0.00024,-0.00032,30.1,30.2,8,0,0.0,0.32,0.00,0.00,1E-6
hly,AgWx,bigpiney,439,11MAR2019:05:00:00,3.6,12.49,1.1,0.5,1.8,-0.7,0,0.0001,2.5,0.9,246,34,0.133,87,83,-2.9,-1.3,-4.6,-0.00028,-0.00038,30.1,30.2,8,0,0.0,0.32,0.00,0.00,1E-6
hly,AgWx,bigpiney,439,11MAR2019:06:00:00,3.0,12.49,0.6,0.2,0.9,-0.5,2,0.0069,2.1,0.7,287,24,0.129,87,83,-3.2,-2.4,-4.0,-0.00029,-0.00041,30.1,30.3,8,0,0.0,0.32,0.00,0.00,0.0048762746
hly,AgWx,bigpiney,439,11MAR2019:07:00:00,3.5,12.88,2.9,1.8,3.5,-0.3,101,0.3650,2.9,1.0,103,15,0.146,87,85,-1.5,0.3,-3.7,0.00011,0.00015,30.0,30.2,8,0,0.0,0.32,0.00,0.00,0.2324725
hly,AgWx,bigpiney,439,11MAR2019:08:00:00,8.7,14.74,4.0,3.2,4.8,1.8,292,1.0500,3.8,2.0,192,17,0.153,87,84,-0.2,1.5,-1.7,0.00160,0.00175,30.0,30.3,8,0,0.0,0.32,0.00,0.00,0.9073759
hly,AgWx,bigpiney,439,11MAR2019:09:00:00,15.6,14.62,8.4,7.4,9.8,3.9,481,1.7305,4.7,2.8,42,18,0.188,87,84,3.9,6.7,0.3,0.00334,0.00363,29.8,30.2,8,0,0.0,0.32,0.00,0.00,1.5914143
hly,AgWx,bigpiney,439,11MAR2019:10:00:00,22.2,14.51,13.3,12.9,15.8,8.2,630,2.2683,5.5,2.3,47,23,0.224,85,77,8.4,10.6,4.4,0.00559,0.00605,29.7,30.2,8,0,0.0,0.32,0.00,0.00,2.1464415
hly,AgWx,bigpiney,439,11MAR2019:11:00:00,28.2,14.44,19.5,18.8,22.4,15.4,725,2.6103,6.7,3.8,53,20,0.258,80,66,11.6,14.3,9.0,0.00734,0.00808,29.6,30.2,8,0,0.0,0.32,0.00,0.00,2.5225734
hly,AgWx,bigpiney,439,11MAR2019:12:00:00,31.5,14.34,22.4,22.9,24.3,21.9,763,2.7474,8.1,5.3,55,15,0.297,74,64,14.2,16.3,11.9,0.00831,0.00929,29.6,30.0,8,0,0.0,0.32,0.00,0.00,2.6893715
hly,AgWx,bigpiney,439,11MAR2019:13:00:00,32.7,14.33,24.0,23.9,25.5,22.7,737,2.6533,10.5,7.4,37,9.3,0.311,75,67,15.6,18.6,14.0,0.00776,0.00883,29.6,30.0,8,0,0.0,0.32,0.00,0.00,2.6360718
hly,AgWx,bigpiney,439,11MAR2019:14:00:00,35.0,14.26,26.3,25.7,27.3,24.7,653,2.3504,9.1,6.1,29,10,0.330,74,66,16.9,20.1,15.5,0.00744,0.00848,29.6,29.9,8,0,0.0,0.32,0.00,0.00,2.3644533
hly,AgWx,bigpiney,439,11MAR2019:15:00:00,37.4,14.2,27.6,27.0,27.6,26.2,519,1.8698,6.9,4.1,99,17,0.320,71,61,16.8,18.9,15.4,0.00637,0.00726,29.6,30.0,8,0,0.0,0.32,0.00,0.00,1.8999706
hly,AgWx,bigpiney,439,11MAR2019:16:00:00,39.0,14.17,28.0,27.8,28.5,27.3,346,1.2463,4.8,2.2,99,23,0.317,65,59,16.5,17.9,15.3,0.00422,0.00482,29.7,30.0,8,0,0.0,0.32,0.00,0.00,1.2805054
hly,AgWx,bigpiney,439,11MAR2019:17:00:00,37.4,14.21,27.5,27.5,28.1,25.7,162,0.5830,4.2,1.7,103,18,0.323,69,60,16.5,17.5,15.4,0.00131,0.00165,29.7,29.9,8,0,0.0,0.32,0.00,0.00,0.57660978
hly,AgWx,bigpiney,439,11MAR2019:18:00:00,31.2,12.97,23.3,23.5,25.8,21.1,24,0.0861,3.6,1.4,158,16,0.302,76,69,15.6,17.3,14.1,-0.00050,-0.00052,29.8,30.0,8,0,0.0,0.32,0.00,0.00,0.0652056675
hly,AgWx,bigpiney,439,11MAR2019:19:00:00,23.6,12.89,17.9,18.7,21.4,17.1,0,0.0001,5.0,3.2,270,18,0.273,84,74,13.3,15.1,11.6,-0.00021,-0.00023,29.8,30.0,8,0,0.0,0.32,0.00,0.00,1E-6
hly,AgWx,bigpiney,439,11MAR2019:20:00:00,19.0,12.85,13.2,13.0,17.1,11.3,0,0.0001,3.7,1.4,249,38,0.233,88,79,9.6,13.0,7.8,-0.00038,-0.00050,29.9,30.0,8,0,0.0,0.32,0.00,0.00,1E-6
hly,AgWx,bigpiney,439,11MAR2019:21:00:00,15.7,12.8,9.8,10.0,12.0,7.5,0,0.0001,4.4,2.3,144,31,0.205,90,85,7.0,9.1,4.3,-0.00027,-0.00032,29.9,30.0,8,0,0.0,0.32,0.00,0.00,1E-6
hly,AgWx,bigpiney,439,11MAR2019:22:00:00,13.5,12.75,10.1,9.7,11.3,5.1,0,0.0001,3.9,1.6,284,16,0.207,90,82,6.8,8.5,0.9,-0.00032,-0.00040,29.9,30.0,8,0,0.0,0.32,0.00,0.00,1E-6
hly,AgWx,bigpiney,439,11MAR2019:23:00:00,12.5,12.74,8.4,8.4,8.9,7.0,0,0.0000,1.8,0.4,271,45,0.198,92,88,6.0,6.7,4.7,-0.00011,-0.00016,30.0,30.1,8,0,0.0,0.32,0.00,0.00,2.5E-7
hly,AgWx,blo,425,11MAR2019:00:00:00,17.5,12.92,19.4,19.7,21.5,18.6,0,0.0001,4.2,2.2,265,27,0.312,88,83,16.3,18.0,15.2,-0.00037,-0.00046,33.4,34.3,24,100,21.1,17.53,0.00,0.00,1E-6
hly,AgWx,blo,425,11MAR2019:01:00:00,17.7,12.89,19.3,19.3,21.1,17.4,0,0.0001,3.6,2.1,254,14,0.313,88,84,15.9,17.8,14.3,-0.00039,-0.00048,33.4,34.3,24,100,21.8,17.52,0.00,0.00,1E-6
hly,AgWx,blo,425,11MAR2019:02:00:00,17.1,12.87,19.4,19.6,20.3,17.9,0,0.0001,3.6,1.9,304,20,0.320,89,87,16.6,17.4,15.0,-0.00042,-0.00053,33.4,34.3,24,100,21.0,17.52,0.00,0.00,1E-6
hly,AgWx,blo,425,11MAR2019:03:00:00,17.3,12.83,18.2,18.2,20.2,16.4,0,0.0001,3.7,2.1,258,23,0.316,94,88,16.1,18.2,14.1,-0.00040,-0.00051,33.4,34.3,24,100,21.8,17.53,0.00,0.00,1E-6
hly,AgWx,blo,425,11MAR2019:04:00:00,16.6,12.8,15.3,15.5,16.4,14.4,0,0.0001,5.6,3.7,228,8.1,0.282,93,92,13.7,14.8,12.5,-0.00026,-0.00030,33.4,34.3,24,100,18.6,17.52,0.00,0.00,1E-6
hly,AgWx,blo,425,11MAR2019:05:00:00,14.9,12.77,16.6,16.0,19.3,14.7,0,0.0001,4.4,2.3,253,16,0.296,94,92,14.3,17.7,12.8,-0.00037,-0.00046,33.3,34.3,24,100,18.1,17.52,0.01,0.00,1E-6
hly,AgWx,blo,425,11MAR2019:06:00:00,14.5,12.76,16.3,16.5,19.3,14.8,1,0.0028,3.8,1.9,235,18,0.296,94,90,14.6,17.7,12.9,-0.00041,-0.00053,33.4,34.3,24,100,18.4,17.52,0.00,0.00,0.0027589568
hly,AgWx,blo,425,11MAR2019:07:00:00,15.7,12.82,18.6,18.4,19.5,15.8,84,0.3007,4.1,1.8,228,15,0.319,93,88,16.2,17.5,13.7,-0.00007,-0.00002,33.4,34.3,24,100,28.1,17.52,0.00,0.00,0.19370818
hly,AgWx,blo,425,11MAR2019:08:00:00,22.0,14.91,20.1,20.0,21.1,18.7,265,0.9536,4.3,2.2,265,7.6,0.330,88,87,16.9,18.1,15.5,0.00221,0.00244,33.4,34.3,24,97,43.8,17.52,0.00,0.00,0.8432841
hly,AgWx,blo,425,11MAR2019:09:00:00,30.1,14.8,21.0,21.3,21.7,20.8,439,1.5811,4.3,1.8,79,20,0.344,89,85,18.1,18.9,17.2,0.00457,0.00494,33.4,34.3,24,1,61.2,17.51,0.00,0.00,1.5332302
hly,AgWx,blo,425,11MAR2019:10:00:00,34.8,14.33,22.3,22.6,24.2,21.3,607,2.1849,5.7,2.1,84,20,0.363,89,86,19.4,21.0,18.4,0.00684,0.00736,33.4,34.3,24,7,65.8,17.51,0.00,0.00,2.1046207
hly,AgWx,blo,425,11MAR2019:11:00:00,36.0,14.31,23.7,23.7,24.8,23.2,709,2.5509,7.2,3.7,81,15,0.358,87,80,19.4,20.2,18.7,0.00796,0.00864,33.4,34.3,24,7,60.3,17.51,0.01,0.00,2.5049169
hly,AgWx,blo,425,11MAR2019:12:00:00,37.4,14.27,24.9,25.2,25.9,24.2,757,2.7254,5.2,3.0,70,18,0.358,80,76,19.2,19.8,18.7,0.00920,0.01000,33.4,34.3,24,0,63.6,17.51,0.00,0.00,2.6974938
hly,AgWx,blo,425,11MAR2019:13:00:00,38.5,14.21,25.5,25.8,26.6,25.4,745,2.6831,5.4,3.1,79,18,0.366,79,76,19.6,20.7,18.8,0.00914,0.00997,33.4,34.3,24,0,61.2,17.51,0.00,0.00,2.664784
hly,AgWx,blo,425,11MAR2019:14:00:00,39.0,14.17,27.2,27.3,28.3,26.5,675,2.4290,7.4,3.8,91,18,0.384,78,74,20.6,21.5,20.1,0.00832,0.00917,33.4,34.3,24,26,54.7,17.51,0.00,0.00,2.4095757
hly,AgWx,blo,425,11MAR2019:15:00:00,39.0,14.12,27.8,28.2,29.0,27.7,552,1.9857,6.8,3.5,81,13,0.391,76,73,21.2,21.9,20.6,0.00685,0.00761,33.4,34.3,24,100,49.1,17.51,0.00,0.00,1.9555682
hly,AgWx,blo,425,11MAR2019:16:00:00,40.5,14.11,27.7,28.1,28.6,27.6,377,1.3586,4.1,2.1,65,17,0.387,76,72,21.0,21.7,20.4,0.00449,0.00500,33.4,34.3,24,100,46.9,17.51,0.00,0.00,1.3433998
hly,AgWx,blo,425,11MAR2019:17:00:00,38.6,13.8,27.5,27.7,28.3,27.0,183,0.6589,2.9,1.2,128,22,0.388,77,74,21.1,21.5,20.4,0.00148,0.00170,33.4,34.3,24,100,43.1,17.51,0.00,0.00,0.63904244
hly,AgWx,blo,425,11MAR2019:18:00:00,31.7,13.21,24.9,25.8,27.3,23.8,12,0.0415,3.4,2.0,262,17,0.345,77,72,18.9,20.6,17.5,-0.00010,-0.00003,33.4,34.3,24,100,28.5,17.52,0.01,0.00,0.088479626
hly,AgWx,blo,425,11MAR2019:19:00:00,25.6,13.11,23.1,23.4,24.9,22.0,0,0.0002,4.6,2.6,240,11,0.334,81,76,17.7,19.3,16.5,-0.00031,-0.00036,33.4,34.3,24,100,24.7,17.52,0.00,0.00,1E-6
hly,AgWx,blo,425,11MAR2019:20:00:00,22.5,13.07,22.2,21.9,22.8,20.9,0,0.0001,5.0,3.4,236,11,0.334,84,79,17.1,18.0,16.3,-0.00024,-0.00026,33.4,34.3,24,100,23.7,17.53,0.00,0.00,1E-6
hly,AgWx,blo,425,11MAR2019:21:00:00,21.1,13.02,22.0,21.8,22.8,20.7,0,0.0001,6.0,3.4,240,15,0.334,84,81,17.4,18.6,16.1,-0.00025,-0.00028,33.4,34.3,24,100,23.5,17.52,0.00,0.00,1E-6
hly,AgWx,blo,425,11MAR2019:22:00:00,20.4,12.98,22.9,23.1,25.4,21.1,0,0.0001,4.6,2.1,259,29,0.346,83,75,18.0,19.7,15.3,-0.00038,-0.00046,33.4,34.3,24,100,23.9,17.52,0.01,0.00,1E-6
hly,AgWx,blo,425,11MAR2019:23:00:00,20.0,12.97,24.9,22.4,24.7,20.0,0,0.0000,3.9,2.0,258,24,0.365,83,78,17.3,19.6,14.4,-0.00010,-0.00012,33.4,34.3,24,100,23.2,17.52,0.00,0.00,2.5E-7
hly,AgWx,bloomfield,441,11MAR2019:00:00:00,43.9,12.67,44.9,43.5,48.0,41.7,6,0.0205,14.5,5.5,204,50,0.413,45,36,21.6,25.2,19.8,0.00079,0.00109,44.4,45.3,25,0,0.0,1.45,0.00,0.00,1E-6
hly,AgWx,bloomfield,441,11MAR2019:01:00:00,46.3,12.67,46.3,46.7,49.3,44.4,5,0.0194,17.8,7.4,241,20,0.550,56,38,28.7,30.6,24.4,0.00100,0.00129,44.1,44.9,25,0,0.0,1.45,0.00,0.00,1E-6
hly,AgWx,bloomfield,441,11MAR2019:02:00:00,46.1,12.65,43.7,43.7,45.2,42.0,5,0.0191,7.0,4.1,130,19,0.547,63,53,29.3,30.8,27.0,0.00024,0.00041,43.9,44.6,25,0,0.0,1.45,0.00,0.00,1E-6
hly,AgWx,bloomfield,441,11MAR2019:03:00:00,45.1,12.62,42.4,42.1,42.7,41.5,5,0.0197,13.2,6.7,97,12,0.569,76,52,29.4,34.6,26.3,0.00048,0.00066,43.7,44.4,25,0,0.0,1.45,0.00,0.00,1E-6
hly,AgWx,bloomfield,441,11MAR2019:04:00:00,44.2,12.59,40.8,40.5,41.5,40.1,5,0.0191,15.1,9.9,82,7.3,0.672,80,76,34.5,34.9,34.1,0.00027,0.00036,43.5,44.2,25,0,0.0,1.45,0.00,0.00,1E-6
hly,AgWx,bloomfield,441,11MAR2019:05:00:00,43.5,12.57,40.9,40.6,41.0,40.3,5,0.0194,16.1,9.1,50,16,0.659,78,76,33.9,34.5,33.5,0.00027,0.00037,43.4,44.1,25,0,0.0,1.45,0.00,0.00,1E-6
hly,AgWx,bloomfield,441,11MAR2019:06:00:00,42.8,12.55,39.6,39.4,40.3,38.7,7,0.0268,10.7,7.7,85,9.4,0.661,83,78,34.0,34.2,33.7,0.00008,0.00028,43.2,43.9,25,0,0.0,1.45,0.00,0.00,0.0166268681
hly,AgWx,bloomfield,441,11MAR2019:07:00:00,41.9,12.59,40.0,39.4,40.6,38.8,56,0.2017,12.0,8.2,82,8.7,0.672,83,80,34.3,34.9,33.8,0.00113,0.00184,43.0,43.7,25,0,0.0,1.45,0.00,0.00,0.36597105
hly,AgWx,bloomfield,441,11MAR2019:08:00:00,43.1,13.08,43.2,42.1,44.4,40.5,203,0.7300,12.9,9.4,76,8.9,0.698,80,72,35.1,36.1,34.5,0.00370,0.00490,42.9,43.6,25,0,0.0,1.45,0.00,0.00,1.1081213
hly,AgWx,bloomfield,441,11MAR2019:09:00:00,47.1,14.45,48.3,46.8,52.8,43.9,298,1.0723,12.2,7.5,98,26,0.723,72,51,36.4,37.5,35.1,0.00621,0.00783,43.1,43.5,25,0,0.0,1.45,0.00,0.00,1.8170841
hly,AgWx,bloomfield,441,11MAR2019:10:00:00,52.8,13.98,53.8,53.2,55.3,52.3,476,1.7142,21.7,13.2,206,16,0.650,51,43,33.7,35.3,32.6,0.01195,0.01615,43.8,43.6,25,0,0.0,1.45,0.00,0.00,2.3979838
hly,AgWx,bloomfield,441,11MAR2019:11:00:00,57.4,13.9,56.0,55.0,56.6,53.3,549,1.9756,21.5,12.2,196,16,0.574,45,34,31.0,33.6,27.8,0.01430,0.01908,44.8,43.8,25,0,0.0,1.45,0.00,0.00,2.7857381
hly,AgWx,bloomfield,441,11MAR2019:12:00:00,59.8,13.85,55.8,55.9,57.3,54.3,555,1.9982,20.8,12.7,211,17,0.499,36,30,27.5,29.7,24.4,0.01531,0.02076,46.1,44.2,25,0,0.0,1.45,0.00,0.00,2.9499398
hly,AgWx,bloomfield,441,11MAR2019:13:00:00,59.9,13.85,55.9,55.7,57.7,54.6,482,1.7348,21.8,12.0,219,19,0.561,38,34,29.4,31.7,27.3,0.01375,0.01873,47.3,44.8,25,0,0.0,1.45,0.00,0.00,2.8525638
hly,AgWx,bloomfield,441,11MAR2019:14:00:00,61.1,13.82,57.2,57.2,58.4,55.7,485,1.7463,22.0,12.7,238,15,0.580,38,35,31.0,32.2,29.9,0.01410,0.01937,48.3,45.5,25,0,0.0,1.45,0.00,0.00,2.523578
hly,AgWx,bloomfield,441,11MAR2019:15:00:00,59.2,12.93,52.6,54.0,57.6,47.8,99,0.3551,21.4,12.1,214,21,0.685,74,35,33.3,39.9,29.8,0.00681,0.01070,49.1,46.2,25,0,0.0,1.46,0.00,0.01,1.9878642
hly,AgWx,bloomfield,441,11MAR2019:16:00:00,53.4,14.02,48.7,48.5,49.6,47.7,186,0.6690,12.7,8.2,147,9.2,0.877,78,67,40.9,42.1,38.7,0.00427,0.00561,49.1,46.7,25,1,0.0,1.48,0.00,0.02,1.2841758
hly,AgWx,bloomfield,441,11MAR2019:17:00:00,51.8,12.84,48.0,47.9,48.6,46.6,57,0.2054,11.5,7.3,91,11,0.883,83,73,41.3,42.2,40.2,0.00208,0.00307,49.0,47.0,26,1,0.0,1.48,0.00,0.00,0.53575705
hly,AgWx,bloomfield,441,11MAR2019:18:00:00,49.7,12.76,45.8,45.9,46.7,44.5,9,0.0308,17.8,10.3,78,10,0.871,88,80,41.2,42.9,39.9,0.00064,0.00110,48.6,47.2,26,1,0.0,1.50,0.00,0.02,0.0483418923
hly,AgWx,bloomfield,441,11MAR2019:19:00:00,47.6,12.73,43.5,43.3,44.5,42.8,5,0.0191,17.2,10.4,76,9.8,0.834,89,86,40.0,40.7,39.6,0.00030,0.00037,48.1,47.2,26,1,0.0,1.51,0.00,0.01,1E-6
hly,AgWx,bloomfield,441,11MAR2019:20:00:00,46.2,12.72,42.6,42.4,43.0,41.8,5,0.0189,15.2,8.4,45,17,0.820,91,87,39.5,39.8,39.2,0.00020,0.00026,47.5,47.0,26,1,0.0,1.68,0.00,0.17,1E-6
hly,AgWx,bloomfield,441,11MAR2019:21:00:00,45.1,12.7,41.7,41.5,42.0,41.0,5,0.0196,13.1,7.6,72,11,0.792,92,88,38.7,39.3,38.2,0.00017,0.00022,47.0,46.8,26,1,0.0,1.81,0.00,0.13,1E-6
hly,AgWx,bloomfield,441,11MAR2019:22:00:00,44.1,12.67,41.0,40.7,41.1,40.5,5,0.0191,14.7,9.3,85,9.3,0.788,93,90,38.4,39.0,38.0,0.00015,0.00019,46.4,46.6,26,1,0.0,2.12,0.00,0.31,1E-6
hly,AgWx,bloomfield,441,11MAR2019:23:00:00,43.8,12.66,41.0,40.5,40.7,40.4,5,0.0047,16.0,13.2,92,7.2,0.798,93,93,38.7,38.9,38.6,0.00004,0.00004,46.1,46.4,25,1,0.0,2.13,0.00,0.01,2.5E-7
hly,AgWx,bluebell,436,11MAR2019:00:00:00,23.7,12.75,22.8,22.9,25.1,20.0,0,0.0001,9.3,4.2,255,31,0.348,88,80,19.0,21.2,16.2,-0.00022,-0.00027,33.2,33.7,23,100,25.8,15.90,0.00,0.00,1E-6
hly,AgWx,bluebell,436,11MAR2019:01:00:00,22.4,12.72,21.6,20.8,23.8,18.6,0,0.0001,6.0,2.4,337,18,0.339,89,83,17.6,20.2,15.5,-0.00031,-0.00038,33.2,33.8,23,100,24.2,15.90,0.00,0.00,1E-6
hly,AgWx,bluebell,436,11MAR2019:02:00:00,23.2,12.7,25.3,24.4,26.0,21.1,0,0.0001,8.2,5.1,349,17,0.373,88,80,19.9,20.8,17.2,-0.00008,-0.00007,33.2,33.8,23,100,27.6,15.90,0.00,0.00,1E-6
hly,AgWx,bluebell,436,11MAR2019:03:00:00,24.8,12.67,24.8,25.1,25.6,23.2,0,0.0001,7.6,3.3,333,20,0.360,81,78,19.7,20.3,18.3,-0.00020,-0.00023,33.2,33.7,23,100,28.2,15.91,0.00,0.00,1E-6
hly,AgWx,bluebell,436,11MAR2019:04:00:00,23.5,12.65,23.1,22.7,25.2,20.9,0,0.0001,6.3,2.4,245,28,0.341,85,80,18.2,20.9,16.6,-0.00031,-0.00039,33.2,33.8,23,100,25.7,15.91,0.00,0.00,1E-6
hly,AgWx,bluebell,436,11MAR2019:05:00:00,21.5,12.62,20.9,20.6,22.4,18.8,0,0.0001,5.5,1.2,214,36,0.327,88,83,16.9,18.7,15.3,-0.00045,-0.00063,33.2,33.7,23,100,24.9,15.90,0.00,0.00,1E-6
hly,AgWx,bluebell,436,11MAR2019:06:00:00,21.7,12.6,22.5,21.4,23.2,20.1,1,0.0036,4.1,1.1,234,50,0.345,89,82,18.0,19.2,16.3,-0.00045,-0.00061,33.2,33.8,23,100,26.3,15.90,0.00,0.00,0.0057310163
hly,AgWx,bluebell,436,11MAR2019:07:00:00,22.7,12.66,24.4,23.5,24.8,22.4,78,0.2792,4.4,2.0,336,16,0.360,85,80,19.0,20.2,17.4,-0.00012,-0.00000,33.2,33.7,23,100,31.3,15.90,0.00,0.00,0.24599902
hly,AgWx,bluebell,436,11MAR2019:08:00:00,27.8,13.63,27.8,26.9,29.8,24.1,233,0.8394,3.9,1.4,302,32,0.395,84,74,21.3,23.3,19.7,0.00241,0.00267,33.2,33.7,23,55,47.7,15.91,0.00,0.00,0.9317143
hly,AgWx,bluebell,436,11MAR2019:09:00:00,34.4,14.55,31.7,31.2,32.6,29.3,328,1.1816,3.3,1.7,98,18,0.420,75,67,22.7,24.5,21.9,0.00464,0.00517,33.2,33.7,23,0,56.1,15.91,0.00,0.00,1.6290857
hly,AgWx,bluebell,436,11MAR2019:10:00:00,37.1,14.52,29.9,29.7,32.5,28.0,450,1.6187,7.8,4.7,165,20,0.449,88,71,24.3,25.5,22.9,0.00579,0.00649,33.2,33.7,23,0,55.9,15.90,0.01,0.00,2.1987511
hly,AgWx,bluebell,436,11MAR2019:11:00:00,39.0,14.05,29.7,29.8,33.3,27.8,614,2.2095,6.1,2.3,192,11,0.460,88,74,25.2,26.9,24.5,0.00857,0.00925,33.2,33.7,23,0,68.9,15.90,0.00,0.00,2.5880573
hly,AgWx,bluebell,436,11MAR2019:12:00:00,45.0,13.99,31.7,31.6,34.8,30.2,785,2.8252,3.1,1.8,181,4.5,0.477,83,71,25.9,27.3,25.1,0.01156,0.01246,33.2,33.3,17,0,76.2,15.90,0.00,0.00,2.7632993
hly,AgWx,bluebell,436,11MAR2019:13:00:00,48.5,13.94,33.1,33.3,34.8,32.2,798,2.8728,3.1,2.1,195,9.2,0.494,79,72,26.8,28.1,25.9,0.01202,0.01301,33.2,33.8,23,0,71.6,15.90,0.00,0.00,2.7097014
hly,AgWx,bluebell,436,11MAR2019:14:00:00,48.8,13.89,33.6,33.4,34.4,33.0,725,2.6116,5.3,3.1,184,8.6,0.506,82,74,27.4,28.3,26.6,0.01046,0.01142,33.2,33.7,23,0,68.2,15.90,0.00,0.00,2.4330486
hly,AgWx,bluebell,436,11MAR2019:15:00:00,48.5,13.87,35.9,35.3,37.2,33.6,567,2.0400,5.2,2.4,175,36,0.514,79,69,27.6,28.8,26.6,0.00849,0.00934,33.2,33.7,23,0,61.7,15.89,0.00,0.00,1.9568623
hly,AgWx,bluebell,436,11MAR2019:16:00:00,46.4,13.88,34.6,33.9,35.7,32.8,390,1.4043,7.8,3.5,157,13,0.517,82,73,27.8,29.2,26.6,0.00512,0.00577,33.2,33.8,23,6,49.3,15.89,0.00,0.00,1.3219456
hly,AgWx,bluebell,436,11MAR2019:17:00:00,42.2,13.89,33.4,33.6,35.2,32.1,191,0.6890,8.6,4.3,121,19,0.525,86,75,28.1,29.0,27.1,0.00198,0.00244,33.2,33.7,23,88,42.7,15.89,0.00,0.00,0.6025382
hly,AgWx,bluebell,436,11MAR2019:18:00:00,35.3,13.04,29.4,29.5,32.0,26.6,14,0.0492,10.6,3.1,203,13,0.484,92,86,26.7,28.3,24.4,-0.00040,-0.00044,33.2,33.7,23,100,32.7,15.90,0.01,0.00,0.072030845
hly,AgWx,bluebell,436,11MAR2019:19:00:00,30.7,12.89,29.5,28.8,29.6,26.7,0,0.0002,6.8,3.1,350,12,0.494,93,90,26.7,27.4,24.5,-0.00044,-0.00053,33.2,33.7,23,100,30.6,15.90,0.01,0.00,1E-6
hly,AgWx,bluebell,436,11MAR2019:20:00:00,28.6,12.86,26.5,26.4,28.9,23.6,0,0.0001,4.9,1.7,321,19,0.434,93,89,24.2,26.8,21.5,-0.00056,-0.00074,33.2,33.8,23,100,28.7,15.90,0.00,0.00,1E-6
hly,AgWx,bluebell,436,11MAR2019:21:00:00,25.9,12.82,25.8,23.9,25.6,22.8,0,0.0001,3.4,0.7,281,45,0.408,95,92,22.3,24.0,21.2,-0.00068,-0.00099,33.2,33.7,23,100,26.8,15.91,0.00,0.00,1E-6
hly,AgWx,bluebell,436,11MAR2019:22:00:00,24.8,12.79,25.6,23.5,25.4,22.0,0,0.0001,4.3,1.7,332,26,0.399,96,93,22.2,24.3,20.6,-0.00055,-0.00073,33.2,33.7,23,100,27.0,15.91,0.01,0.00,1E-6
hly,AgWx,bluebell,436,11MAR2019:23:00:00,24.4,12.79,25.0,23.4,24.1,22.7,0,0.0000,4.8,1.7,327,18,0.393,95,94,21.9,22.9,21.2,-0.00013,-0.00017,33.2,33.8,22,100,26.2,15.90,0.00,0.00,2.5E-7
hly,AgWx,bluecreek,403,11MAR2019:00:00:00,28.0,12.92,29.6,28.9,30.1,26.0,0,0.0000,13.3,9.0,340,6.4,0.358,71,63,18.8,19.7,16.8,0.00039,0.00049,32.4,32.8,45,.,.,16.10,0.00,0.00,1E-6
hly,AgWx,bluecreek,403,11MAR2019:01:00:00,27.9,12.89,27.9,27.8,29.6,25.1,0,0.0000,13.7,8.0,352,6.7,0.346,71,64,18.2,19.2,16.5,0.00030,0.00038,32.4,32.7,45,.,.,16.10,0.00,0.00,1E-6
hly,AgWx,bluecreek,403,11MAR2019:02:00:00,26.8,12.86,28.0,28.0,29.9,24.1,0,0.0000,10.8,6.7,341,8.7,0.337,74,62,17.9,19.0,15.9,0.00024,0.00033,32.4,32.8,45,.,.,16.10,0.00,0.00,1E-6
hly,AgWx,bluecreek,403,11MAR2019:03:00:00,25.9,12.84,28.0,27.3,29.8,23.9,0,0.0000,9.8,6.7,345,7.6,0.334,73,61,17.4,18.8,15.6,0.00023,0.00031,32.4,32.8,45,.,.,16.10,0.00,0.00,1E-6
hly,AgWx,bluecreek,403,11MAR2019:04:00:00,26.3,12.8,29.4,28.6,29.8,27.1,0,0.0000,10.0,7.0,350,7.7,0.337,65,60,17.5,18.1,16.4,0.00032,0.00043,32.4,32.8,45,.,.,16.10,0.01,0.00,1E-6
hly,AgWx,bluecreek,403,11MAR2019:05:00:00,26.3,12.79,25.7,26.8,29.2,23.7,0,0.0000,10.6,8.1,350,9.1,0.314,72,61,16.7,18.8,14.7,0.00032,0.00042,32.4,32.9,45,.,.,16.10,0.00,0.00,1E-6
hly,AgWx,bluecreek,403,11MAR2019:06:00:00,25.5,12.78,28.1,26.7,29.1,23.3,0,0.0014,10.7,8.0,348,12,0.337,74,62,17.0,18.9,15.1,0.00030,0.00039,32.4,32.9,45,.,.,16.10,0.00,0.00,0.001429701
hly,AgWx,bluecreek,403,11MAR2019:07:00:00,25.9,12.81,26.6,26.4,28.4,23.0,60,0.2157,13.4,7.6,338,11,0.325,73,63,17.0,18.2,15.0,0.00069,0.00130,32.4,32.9,45,.,.,16.09,0.00,0.00,0.159635499
hly,AgWx,bluecreek,403,11MAR2019:08:00:00,28.6,14.99,26.1,26.0,28.2,24.1,234,0.8431,8.2,5.9,342,8.3,0.333,73,63,17.2,18.6,15.5,0.00240,0.00315,32.4,32.7,45,.,.,16.09,0.00,0.00,0.7813461